Year,Month,Day,Hour,Minute,Value (Times are PST for temperature in C)
2008,04,26,00,00,4.40
2008,04,26,00,01,4.40
2008,04,26,00,02,4.30
2008,04,26,00,03,4.30
2008,04,26,00,04,4.30
2008,04,26,00,05,4.30
2008,04,26,00,06,4.30
2008,04,26,00,07,4.30
2008,04,26,00,08,4.40
2008,04,26,00,09,4.40
2008,04,26,00,10,4.40
2008,04,26,00,11,4.40
2008,04,26,00,12,4.40
2008,04,26,00,13,4.30
2008,04,26,00,14,4.30
2008,04,26,00,15,4.20
2008,04,26,00,16,4.10
2008,04,26,00,17,4.10
2008,04,26,00,18,4.00
2008,04,26,00,19,3.90
2008,04,26,00,20,3.90
2008,04,26,00,21,3.80
2008,04,26,00,22,3.80
2008,04,26,00,23,3.70
2008,04,26,00,24,3.70
2008,04,26,00,25,3.60
2008,04,26,00,26,3.60
2008,04,26,00,27,3.60
2008,04,26,00,28,3.60
2008,04,26,00,29,3.50
2008,04,26,00,30,3.50
2008,04,26,00,31,3.50
2008,04,26,00,32,3.40
2008,04,26,00,33,3.40
2008,04,26,00,34,3.40
2008,04,26,00,35,3.40
2008,04,26,00,36,3.40
2008,04,26,00,37,3.40
2008,04,26,00,38,3.40
2008,04,26,00,39,3.50
2008,04,26,00,40,3.50
2008,04,26,00,41,3.60
2008,04,26,00,42,3.70
2008,04,26,00,43,3.70
2008,04,26,00,44,3.70
2008,04,26,00,45,3.70
2008,04,26,00,46,3.70
2008,04,26,00,47,3.70
2008,04,26,00,48,3.60
2008,04,26,00,49,3.60
2008,04,26,00,50,3.60
2008,04,26,00,51,3.60
2008,04,26,00,52,3.60
2008,04,26,00,53,3.50
2008,04,26,00,54,3.50
2008,04,26,00,55,3.50
2008,04,26,00,56,3.40
2008,04,26,00,57,3.40
2008,04,26,00,58,3.30
2008,04,26,00,59,3.30
2008,04,26,01,00,3.30
2008,04,26,01,01,3.20
2008,04,26,01,02,3.20
2008,04,26,01,03,3.20
2008,04,26,01,04,3.10
2008,04,26,01,05,3.10
2008,04,26,01,06,3.10
2008,04,26,01,07,3.00
2008,04,26,01,08,3.00
2008,04,26,01,09,3.00
2008,04,26,01,10,2.90
2008,04,26,01,11,2.90
2008,04,26,01,12,2.90
2008,04,26,01,13,2.90
2008,04,26,01,14,2.90
2008,04,26,01,15,2.90
2008,04,26,01,16,2.90
2008,04,26,01,17,3.00
2008,04,26,01,18,3.00
2008,04,26,01,19,3.00
2008,04,26,01,20,3.00
2008,04,26,01,21,3.00
2008,04,26,01,22,3.10
2008,04,26,01,23,3.10
2008,04,26,01,24,3.10
2008,04,26,01,25,3.10
2008,04,26,01,26,3.10
2008,04,26,01,27,3.10
2008,04,26,01,28,3.10
2008,04,26,01,29,3.10
2008,04,26,01,30,3.10
2008,04,26,01,31,3.20
2008,04,26,01,32,3.20
2008,04,26,01,33,3.20
2008,04,26,01,34,3.20
2008,04,26,01,35,3.20
2008,04,26,01,36,3.20
2008,04,26,01,37,3.20
2008,04,26,01,38,3.20
2008,04,26,01,39,3.20
2008,04,26,01,40,3.20
2008,04,26,01,41,3.20
2008,04,26,01,42,3.20
2008,04,26,01,43,3.20
2008,04,26,01,44,3.10
2008,04,26,01,45,3.10
2008,04,26,01,46,3.10
2008,04,26,01,47,3.10
2008,04,26,01,48,3.10
2008,04,26,01,49,3.10
2008,04,26,01,50,3.10
2008,04,26,01,51,3.10
2008,04,26,01,52,3.10
2008,04,26,01,53,3.10
2008,04,26,01,54,3.10
2008,04,26,01,55,3.10
2008,04,26,01,56,3.20
2008,04,26,01,57,3.20
2008,04,26,01,58,3.20
2008,04,26,01,59,3.20
2008,04,26,02,00,3.20
2008,04,26,02,01,3.20
2008,04,26,02,02,3.20
2008,04,26,02,03,3.20
2008,04,26,02,04,3.20
2008,04,26,02,05,3.20
2008,04,26,02,06,3.30
2008,04,26,02,07,3.30
2008,04,26,02,08,3.30
2008,04,26,02,09,3.30
2008,04,26,02,10,3.30
2008,04,26,02,11,3.30
2008,04,26,02,12,3.40
2008,04,26,02,13,3.40
2008,04,26,02,14,3.40
2008,04,26,02,15,3.40
2008,04,26,02,16,3.40
2008,04,26,02,17,3.30
2008,04,26,02,18,3.30
2008,04,26,02,19,3.30
2008,04,26,02,20,3.30
2008,04,26,02,21,3.30
2008,04,26,02,22,3.40
2008,04,26,02,23,3.40
2008,04,26,02,24,3.40
2008,04,26,02,25,3.40
2008,04,26,02,26,3.40
2008,04,26,02,27,3.30
2008,04,26,02,28,3.30
2008,04,26,02,29,3.30
2008,04,26,02,30,3.30
2008,04,26,02,31,3.30
2008,04,26,02,32,3.30
2008,04,26,02,33,3.30
2008,04,26,02,34,3.30
2008,04,26,02,35,3.30
2008,04,26,02,36,3.30
2008,04,26,02,37,3.30
2008,04,26,02,38,3.30
2008,04,26,02,39,3.30
2008,04,26,02,40,3.30
2008,04,26,02,41,3.30
2008,04,26,02,42,3.30
2008,04,26,02,43,3.30
2008,04,26,02,44,3.20
2008,04,26,02,45,3.20
2008,04,26,02,46,3.20
2008,04,26,02,47,3.20
2008,04,26,02,48,3.20
2008,04,26,02,49,3.20
2008,04,26,02,50,3.20
2008,04,26,02,51,3.20
2008,04,26,02,52,3.20
2008,04,26,02,53,3.30
2008,04,26,02,54,3.30
2008,04,26,02,55,3.30
2008,04,26,02,56,3.30
2008,04,26,02,57,3.30
2008,04,26,02,58,3.30
2008,04,26,02,59,3.30
2008,04,26,03,00,3.30
2008,04,26,03,01,3.30
2008,04,26,03,02,3.30
2008,04,26,03,03,3.30
2008,04,26,03,04,3.30
2008,04,26,03,05,3.30
2008,04,26,03,06,3.40
2008,04,26,03,07,3.50
2008,04,26,03,08,3.50
2008,04,26,03,09,3.60
2008,04,26,03,10,3.60
2008,04,26,03,11,3.60
2008,04,26,03,12,3.60
2008,04,26,03,13,3.50
2008,04,26,03,14,3.50
2008,04,26,03,15,3.50
2008,04,26,03,16,3.50
2008,04,26,03,17,3.50
2008,04,26,03,18,3.50
2008,04,26,03,19,3.40
2008,04,26,03,20,3.40
2008,04,26,03,21,3.40
2008,04,26,03,22,3.30
2008,04,26,03,23,3.30
2008,04,26,03,24,3.30
2008,04,26,03,25,3.30
2008,04,26,03,26,3.30
2008,04,26,03,27,3.30
2008,04,26,03,28,3.30
2008,04,26,03,29,3.30
2008,04,26,03,30,3.30
2008,04,26,03,31,3.30
2008,04,26,03,32,3.30
2008,04,26,03,33,3.30
2008,04,26,03,34,3.40
2008,04,26,03,35,3.50
2008,04,26,03,36,3.50
2008,04,26,03,37,3.60
2008,04,26,03,38,3.70
2008,04,26,03,39,3.70
2008,04,26,03,40,3.70
2008,04,26,03,41,3.70
2008,04,26,03,42,3.70
2008,04,26,03,43,3.80
2008,04,26,03,44,3.80
2008,04,26,03,45,3.80
2008,04,26,03,46,3.80
2008,04,26,03,47,3.70
2008,04,26,03,48,3.70
2008,04,26,03,49,3.70
2008,04,26,03,50,3.60
2008,04,26,03,51,3.50
2008,04,26,03,52,3.50
2008,04,26,03,53,3.40
2008,04,26,03,54,3.30
2008,04,26,03,55,3.30
2008,04,26,03,56,3.30
2008,04,26,03,57,3.30
2008,04,26,03,58,3.30
2008,04,26,03,59,3.20
2008,04,26,04,00,3.30
2008,04,26,04,01,3.30
2008,04,26,04,02,3.30
2008,04,26,04,03,3.30
2008,04,26,04,04,3.30
2008,04,26,04,05,3.40
2008,04,26,04,06,3.40
2008,04,26,04,07,3.40
2008,04,26,04,08,3.50
2008,04,26,04,09,3.50
2008,04,26,04,10,3.60
2008,04,26,04,11,3.60
2008,04,26,04,12,3.70
2008,04,26,04,13,3.70
2008,04,26,04,14,3.70
2008,04,26,04,15,3.70
2008,04,26,04,16,3.80
2008,04,26,04,17,3.80
2008,04,26,04,18,3.80
2008,04,26,04,19,3.80
2008,04,26,04,20,3.80
2008,04,26,04,21,3.80
2008,04,26,04,22,3.80
2008,04,26,04,23,3.80
2008,04,26,04,24,3.80
2008,04,26,04,25,3.80
2008,04,26,04,26,3.80
2008,04,26,04,27,3.70
2008,04,26,04,28,3.70
2008,04,26,04,29,3.60
2008,04,26,04,30,3.60
2008,04,26,04,31,3.50
2008,04,26,04,32,3.50
2008,04,26,04,33,3.40
2008,04,26,04,34,3.40
2008,04,26,04,35,3.40
2008,04,26,04,36,3.40
2008,04,26,04,37,3.50
2008,04,26,04,38,3.50
2008,04,26,04,39,3.60
2008,04,26,04,40,3.60
2008,04,26,04,41,3.60
2008,04,26,04,42,3.70
2008,04,26,04,43,3.70
2008,04,26,04,44,3.70
2008,04,26,04,45,3.70
2008,04,26,04,46,3.70
2008,04,26,04,47,3.60
2008,04,26,04,48,3.60
2008,04,26,04,49,3.50
2008,04,26,04,50,3.50
2008,04,26,04,51,3.50
2008,04,26,04,52,3.40
2008,04,26,04,53,3.40
2008,04,26,04,54,3.50
2008,04,26,04,55,3.50
2008,04,26,04,56,3.60
2008,04,26,04,57,3.60
2008,04,26,04,58,3.70
2008,04,26,04,59,3.70
2008,04,26,05,00,3.70
2008,04,26,05,01,3.70
2008,04,26,05,02,3.70
2008,04,26,05,03,3.60
2008,04,26,05,04,3.60
2008,04,26,05,05,3.50
2008,04,26,05,06,3.40
2008,04,26,05,07,3.40
2008,04,26,05,08,3.40
2008,04,26,05,09,3.40
2008,04,26,05,10,3.40
2008,04,26,05,11,3.30
2008,04,26,05,12,3.30
2008,04,26,05,13,3.20
2008,04,26,05,14,3.20
2008,04,26,05,15,3.10
2008,04,26,05,16,3.10
2008,04,26,05,17,3.00
2008,04,26,05,18,2.90
2008,04,26,05,19,2.90
2008,04,26,05,20,2.80
2008,04,26,05,21,2.80
2008,04,26,05,22,2.80
2008,04,26,05,23,2.80
2008,04,26,05,24,2.80
2008,04,26,05,25,2.80
2008,04,26,05,26,2.80
2008,04,26,05,27,2.80
2008,04,26,05,28,2.80
2008,04,26,05,29,2.90
2008,04,26,05,30,2.90
2008,04,26,05,31,2.90
2008,04,26,05,32,2.90
2008,04,26,05,33,2.90
2008,04,26,05,34,2.90
2008,04,26,05,35,2.90
2008,04,26,05,36,3.00
2008,04,26,05,37,3.00
2008,04,26,05,38,3.00
2008,04,26,05,39,3.10
2008,04,26,05,40,3.10
2008,04,26,05,41,3.10
2008,04,26,05,42,3.10
2008,04,26,05,43,3.10
2008,04,26,05,44,3.10
2008,04,26,05,45,3.10
2008,04,26,05,46,3.10
2008,04,26,05,47,3.10
2008,04,26,05,48,3.10
2008,04,26,05,49,3.10
2008,04,26,05,50,3.00
2008,04,26,05,51,3.00
2008,04,26,05,52,3.00
2008,04,26,05,53,3.00
2008,04,26,05,54,3.00
2008,04,26,05,55,3.00
2008,04,26,05,56,3.00
2008,04,26,05,57,3.10
2008,04,26,05,58,3.10
2008,04,26,05,59,3.10
2008,04,26,06,00,3.10
2008,04,26,06,01,3.10
2008,04,26,06,02,3.10
2008,04,26,06,03,3.00
2008,04,26,06,04,3.00
2008,04,26,06,05,2.90
2008,04,26,06,06,2.90
2008,04,26,06,07,2.80
2008,04,26,06,08,2.80
2008,04,26,06,09,2.80
2008,04,26,06,10,2.80
2008,04,26,06,11,2.80
2008,04,26,06,12,2.80
2008,04,26,06,13,2.80
2008,04,26,06,14,2.80
2008,04,26,06,15,2.80
2008,04,26,06,16,2.80
2008,04,26,06,17,2.80
2008,04,26,06,18,2.80
2008,04,26,06,19,2.90
2008,04,26,06,20,2.90
2008,04,26,06,21,2.90
2008,04,26,06,22,2.90
2008,04,26,06,23,2.90
2008,04,26,06,24,2.90
2008,04,26,06,25,2.90
2008,04,26,06,26,3.00
2008,04,26,06,27,3.00
2008,04,26,06,28,3.10
2008,04,26,06,29,3.10
2008,04,26,06,30,3.20
2008,04,26,06,31,3.20
2008,04,26,06,32,3.30
2008,04,26,06,33,3.30
2008,04,26,06,34,3.30
2008,04,26,06,35,3.30
2008,04,26,06,36,3.30
2008,04,26,06,37,3.30
2008,04,26,06,38,3.30
2008,04,26,06,39,3.30
2008,04,26,06,40,3.30
2008,04,26,06,41,3.30
2008,04,26,06,42,3.30
2008,04,26,06,43,3.30
2008,04,26,06,44,3.30
2008,04,26,06,45,3.30
2008,04,26,06,46,3.30
2008,04,26,06,47,3.30
2008,04,26,06,48,3.20
2008,04,26,06,49,3.20
2008,04,26,06,50,3.10
2008,04,26,06,51,3.10
2008,04,26,06,52,3.10
2008,04,26,06,53,3.00
2008,04,26,06,54,3.00
2008,04,26,06,55,2.90
2008,04,26,06,56,2.90
2008,04,26,06,57,2.80
2008,04,26,06,58,2.80
2008,04,26,06,59,2.80
2008,04,26,07,00,2.80
2008,04,26,07,01,2.70
2008,04,26,07,02,2.70
2008,04,26,07,03,2.60
2008,04,26,07,04,2.60
2008,04,26,07,05,2.60
2008,04,26,07,06,2.50
2008,04,26,07,07,2.50
2008,04,26,07,08,2.50
2008,04,26,07,09,2.50
2008,04,26,07,10,2.50
2008,04,26,07,11,2.50
2008,04,26,07,12,2.50
2008,04,26,07,13,2.60
2008,04,26,07,14,2.60
2008,04,26,07,15,2.60
2008,04,26,07,16,2.70
2008,04,26,07,17,2.70
2008,04,26,07,18,2.80
2008,04,26,07,19,2.80
2008,04,26,07,20,2.90
2008,04,26,07,21,2.90
2008,04,26,07,22,3.00
2008,04,26,07,23,3.10
2008,04,26,07,24,3.10
2008,04,26,07,25,3.20
2008,04,26,07,26,3.20
2008,04,26,07,27,3.30
2008,04,26,07,28,3.30
2008,04,26,07,29,3.30
2008,04,26,07,30,3.30
2008,04,26,07,31,3.30
2008,04,26,07,32,3.40
2008,04,26,07,33,3.40
2008,04,26,07,34,3.50
2008,04,26,07,35,3.50
2008,04,26,07,36,3.50
2008,04,26,07,37,3.60
2008,04,26,07,38,3.70
2008,04,26,07,39,3.80
2008,04,26,07,40,3.80
2008,04,26,07,41,3.90
2008,04,26,07,42,4.00
2008,04,26,07,43,4.10
2008,04,26,07,44,4.10
2008,04,26,07,45,4.20
2008,04,26,07,46,4.30
2008,04,26,07,47,4.30
2008,04,26,07,48,4.40
2008,04,26,07,49,4.50
2008,04,26,07,50,4.60
2008,04,26,07,51,4.60
2008,04,26,07,52,4.70
2008,04,26,07,53,4.80
2008,04,26,07,54,4.80
2008,04,26,07,55,4.90
2008,04,26,07,56,5.00
2008,04,26,07,57,5.10
2008,04,26,07,58,5.10
2008,04,26,07,59,5.20
2008,04,26,08,00,5.20
2008,04,26,08,01,5.30
2008,04,26,08,02,5.30
2008,04,26,08,03,5.30
2008,04,26,08,04,5.40
2008,04,26,08,05,5.40
2008,04,26,08,06,5.50
2008,04,26,08,07,5.50
2008,04,26,08,08,5.60
2008,04,26,08,09,5.70
2008,04,26,08,10,5.80
2008,04,26,08,11,5.80
2008,04,26,08,12,5.90
2008,04,26,08,13,5.90
2008,04,26,08,14,6.00
2008,04,26,08,15,6.10
2008,04,26,08,16,6.10
2008,04,26,08,17,6.20
2008,04,26,08,18,6.20
2008,04,26,08,19,6.30
2008,04,26,08,20,6.40
2008,04,26,08,21,6.50
2008,04,26,08,22,6.60
2008,04,26,08,23,6.70
2008,04,26,08,24,6.80
2008,04,26,08,25,6.90
2008,04,26,08,26,7.00
2008,04,26,08,27,7.00
2008,04,26,08,28,7.10
2008,04,26,08,29,7.20
2008,04,26,08,30,7.20
2008,04,26,08,31,7.20
2008,04,26,08,32,7.10
2008,04,26,08,33,7.20
2008,04,26,08,34,7.20
2008,04,26,08,35,7.20
2008,04,26,08,36,7.20
2008,04,26,08,37,7.30
2008,04,26,08,38,7.30
2008,04,26,08,39,7.40
2008,04,26,08,40,7.50
2008,04,26,08,41,7.50
2008,04,26,08,42,7.50
2008,04,26,08,43,7.60
2008,04,26,08,44,7.60
2008,04,26,08,45,7.60
2008,04,26,08,46,7.60
2008,04,26,08,47,7.70
2008,04,26,08,48,7.70
2008,04,26,08,49,7.70
2008,04,26,08,50,7.80
2008,04,26,08,51,7.80
2008,04,26,08,52,7.80
2008,04,26,08,53,7.70
2008,04,26,08,54,7.80
2008,04,26,08,55,7.80
2008,04,26,08,56,7.90
2008,04,26,08,57,8.00
2008,04,26,08,58,8.10
2008,04,26,08,59,8.20
2008,04,26,09,00,8.20
2008,04,26,09,01,8.30
2008,04,26,09,02,8.40
2008,04,26,09,03,8.40
2008,04,26,09,04,8.50
2008,04,26,09,05,8.60
2008,04,26,09,06,8.60
2008,04,26,09,07,8.60
2008,04,26,09,08,8.60
2008,04,26,09,09,8.60
2008,04,26,09,10,8.70
2008,04,26,09,11,8.70
2008,04,26,09,12,8.70
2008,04,26,09,13,8.70
2008,04,26,09,14,8.80
2008,04,26,09,15,8.80
2008,04,26,09,16,8.80
2008,04,26,09,17,8.90
2008,04,26,09,18,8.90
2008,04,26,09,19,8.90
2008,04,26,09,20,8.90
2008,04,26,09,21,8.90
2008,04,26,09,22,8.90
2008,04,26,09,23,8.90
2008,04,26,09,24,8.90
2008,04,26,09,25,8.90
2008,04,26,09,26,9.00
2008,04,26,09,27,9.10
2008,04,26,09,28,9.10
2008,04,26,09,29,9.00
2008,04,26,09,30,8.90
2008,04,26,09,31,8.90
2008,04,26,09,32,8.80
2008,04,26,09,33,8.90
2008,04,26,09,34,8.90
2008,04,26,09,35,8.90
2008,04,26,09,36,9.00
2008,04,26,09,37,9.00
2008,04,26,09,38,9.00
2008,04,26,09,39,9.00
2008,04,26,09,40,9.00
2008,04,26,09,41,9.00
2008,04,26,09,42,9.00
2008,04,26,09,43,9.00
2008,04,26,09,44,9.10
2008,04,26,09,45,9.10
2008,04,26,09,46,9.20
2008,04,26,09,47,9.20
2008,04,26,09,48,9.20
2008,04,26,09,49,9.20
2008,04,26,09,50,9.20
2008,04,26,09,51,9.30
2008,04,26,09,52,9.30
2008,04,26,09,53,9.30
2008,04,26,09,54,9.30
2008,04,26,09,55,9.30
2008,04,26,09,56,9.30
2008,04,26,09,57,9.30
2008,04,26,09,58,9.30
2008,04,26,09,59,9.30
2008,04,26,10,00,9.30
2008,04,26,10,01,9.30
2008,04,26,10,02,9.30
2008,04,26,10,03,9.30
2008,04,26,10,04,9.40
2008,04,26,10,05,9.40
2008,04,26,10,06,9.40
2008,04,26,10,07,9.50
2008,04,26,10,08,9.50
2008,04,26,10,09,9.50
2008,04,26,10,10,9.40
2008,04,26,10,11,9.40
2008,04,26,10,12,9.50
2008,04,26,10,13,9.60
2008,04,26,10,14,9.60
2008,04,26,10,15,9.60
2008,04,26,10,16,9.70
2008,04,26,10,17,9.70
2008,04,26,10,18,9.80
2008,04,26,10,19,9.80
2008,04,26,10,20,9.80
2008,04,26,10,21,9.80
2008,04,26,10,22,9.70
2008,04,26,10,23,9.60
2008,04,26,10,24,9.60
2008,04,26,10,25,9.60
2008,04,26,10,26,9.60
2008,04,26,10,27,9.70
2008,04,26,10,28,9.80
2008,04,26,10,29,9.90
2008,04,26,10,30,9.80
2008,04,26,10,31,9.80
2008,04,26,10,32,9.80
2008,04,26,10,33,9.80
2008,04,26,10,34,9.70
2008,04,26,10,35,9.70
2008,04,26,10,36,9.80
2008,04,26,10,37,9.80
2008,04,26,10,38,10.00
2008,04,26,10,39,10.10
2008,04,26,10,40,10.10
2008,04,26,10,41,10.20
2008,04,26,10,42,10.20
2008,04,26,10,43,10.20
2008,04,26,10,44,10.30
2008,04,26,10,45,10.30
2008,04,26,10,46,10.30
2008,04,26,10,47,10.40
2008,04,26,10,48,10.40
2008,04,26,10,49,10.50
2008,04,26,10,50,10.50
2008,04,26,10,51,10.60
2008,04,26,10,52,10.60
2008,04,26,10,53,10.60
2008,04,26,10,54,10.60
2008,04,26,10,55,10.60
2008,04,26,10,56,10.60
2008,04,26,10,57,10.60
2008,04,26,10,58,10.60
2008,04,26,10,59,10.70
2008,04,26,11,00,10.70
2008,04,26,11,01,10.70
2008,04,26,11,02,10.60
2008,04,26,11,03,10.60
2008,04,26,11,04,10.50
2008,04,26,11,05,10.50
2008,04,26,11,06,10.40
2008,04,26,11,07,10.50
2008,04,26,11,08,10.60
2008,04,26,11,09,10.70
2008,04,26,11,10,10.80
2008,04,26,11,11,10.80
2008,04,26,11,12,10.90
2008,04,26,11,13,11.00
2008,04,26,11,14,11.00
2008,04,26,11,15,11.10
2008,04,26,11,16,11.20
2008,04,26,11,17,11.20
2008,04,26,11,18,11.30
2008,04,26,11,19,11.30
2008,04,26,11,20,11.50
2008,04,26,11,21,11.60
2008,04,26,11,22,11.60
2008,04,26,11,23,11.70
2008,04,26,11,24,11.80
2008,04,26,11,25,11.80
2008,04,26,11,26,11.70
2008,04,26,11,27,11.50
2008,04,26,11,28,11.40
2008,04,26,11,29,11.30
2008,04,26,11,30,11.30
2008,04,26,11,31,11.20
2008,04,26,11,32,11.20
2008,04,26,11,33,11.20
2008,04,26,11,34,11.20
2008,04,26,11,35,11.30
2008,04,26,11,36,11.30
2008,04,26,11,37,11.40
2008,04,26,11,38,11.60
2008,04,26,11,39,11.70
2008,04,26,11,40,11.80
2008,04,26,11,41,11.80
2008,04,26,11,42,11.70
2008,04,26,11,43,11.80
2008,04,26,11,44,11.80
2008,04,26,11,45,11.70
2008,04,26,11,46,11.70
2008,04,26,11,47,11.60
2008,04,26,11,48,11.50
2008,04,26,11,49,11.50
2008,04,26,11,50,11.40
2008,04,26,11,51,11.40
2008,04,26,11,52,11.40
2008,04,26,11,53,11.50
2008,04,26,11,54,11.60
2008,04,26,11,55,11.50
2008,04,26,11,56,11.60
2008,04,26,11,57,11.70
2008,04,26,11,58,11.60
2008,04,26,11,59,11.50
2008,04,26,12,00,11.30
2008,04,26,12,01,11.20
2008,04,26,12,02,11.30
2008,04,26,12,03,11.30
2008,04,26,12,04,11.30
2008,04,26,12,05,11.30
2008,04,26,12,06,11.30
2008,04,26,12,07,11.20
2008,04,26,12,08,11.20
2008,04,26,12,09,11.20
2008,04,26,12,10,11.20
2008,04,26,12,11,11.30
2008,04,26,12,12,11.40
2008,04,26,12,13,11.60
2008,04,26,12,14,11.70
2008,04,26,12,15,11.80
2008,04,26,12,16,12.00
2008,04,26,12,17,12.10
2008,04,26,12,18,12.20
2008,04,26,12,19,12.30
2008,04,26,12,20,12.30
2008,04,26,12,21,12.40
2008,04,26,12,22,12.60
2008,04,26,12,23,12.60
2008,04,26,12,24,12.60
2008,04,26,12,25,12.60
2008,04,26,12,26,12.70
2008,04,26,12,27,12.70
2008,04,26,12,28,12.70
2008,04,26,12,29,12.80
2008,04,26,12,30,12.80
2008,04,26,12,31,12.90
2008,04,26,12,32,13.00
2008,04,26,12,33,13.00
2008,04,26,12,34,12.90
2008,04,26,12,35,13.10
2008,04,26,12,36,13.10
2008,04,26,12,37,13.20
2008,04,26,12,38,13.00
2008,04,26,12,39,13.00
2008,04,26,12,40,13.00
2008,04,26,12,41,13.00
2008,04,26,12,42,12.90
2008,04,26,12,43,13.00
2008,04,26,12,44,13.10
2008,04,26,12,45,13.00
2008,04,26,12,46,12.80
2008,04,26,12,47,12.70
2008,04,26,12,48,12.60
2008,04,26,12,49,12.60
2008,04,26,12,50,12.60
2008,04,26,12,51,12.60
2008,04,26,12,52,12.60
2008,04,26,12,53,12.70
2008,04,26,12,54,12.70
2008,04,26,12,55,12.70
2008,04,26,12,56,12.60
2008,04,26,12,57,12.60
2008,04,26,12,58,12.60
2008,04,26,12,59,12.60
2008,04,26,13,00,12.60
2008,04,26,13,01,12.60
2008,04,26,13,02,12.60
2008,04,26,13,03,12.60
2008,04,26,13,04,12.60
2008,04,26,13,05,12.50
2008,04,26,13,06,12.50
2008,04,26,13,07,12.40
2008,04,26,13,08,12.40
2008,04,26,13,09,12.30
2008,04,26,13,10,12.40
2008,04,26,13,11,12.40
2008,04,26,13,12,12.50
2008,04,26,13,13,12.60
2008,04,26,13,14,12.60
2008,04,26,13,15,12.70
2008,04,26,13,16,12.70
2008,04,26,13,17,12.80
2008,04,26,13,18,13.00
2008,04,26,13,19,13.10
2008,04,26,13,20,13.10
2008,04,26,13,21,12.90
2008,04,26,13,22,12.80
2008,04,26,13,23,12.70
2008,04,26,13,24,12.50
2008,04,26,13,25,12.40
2008,04,26,13,26,12.40
2008,04,26,13,27,12.60
2008,04,26,13,28,12.80
2008,04,26,13,29,12.80
2008,04,26,13,30,12.80
2008,04,26,13,31,12.80
2008,04,26,13,32,12.80
2008,04,26,13,33,12.70
2008,04,26,13,34,12.70
2008,04,26,13,35,12.70
2008,04,26,13,36,12.70
2008,04,26,13,37,12.70
2008,04,26,13,38,12.60
2008,04,26,13,39,12.70
2008,04,26,13,40,12.80
2008,04,26,13,41,12.90
2008,04,26,13,42,13.10
2008,04,26,13,43,13.30
2008,04,26,13,44,13.40
2008,04,26,13,45,13.40
2008,04,26,13,46,13.50
2008,04,26,13,47,13.50
2008,04,26,13,48,13.50
2008,04,26,13,49,13.60
2008,04,26,13,50,13.60
2008,04,26,13,51,13.70
2008,04,26,13,52,13.70
2008,04,26,13,53,13.50
2008,04,26,13,54,13.40
2008,04,26,13,55,13.40
2008,04,26,13,56,13.50
2008,04,26,13,57,13.60
2008,04,26,13,58,13.80
2008,04,26,13,59,13.80
2008,04,26,14,00,13.60
2008,04,26,14,01,13.50
2008,04,26,14,02,13.50
2008,04,26,14,03,13.60
2008,04,26,14,04,13.70
2008,04,26,14,05,13.60
2008,04,26,14,06,13.60
2008,04,26,14,07,13.80
2008,04,26,14,08,13.70
2008,04,26,14,09,13.70
2008,04,26,14,10,13.70
2008,04,26,14,11,13.70
2008,04,26,14,12,13.80
2008,04,26,14,13,13.80
2008,04,26,14,14,13.90
2008,04,26,14,15,13.80
2008,04,26,14,16,13.70
2008,04,26,14,17,13.50
2008,04,26,14,18,13.40
2008,04,26,14,19,13.50
2008,04,26,14,20,13.60
2008,04,26,14,21,13.60
2008,04,26,14,22,13.60
2008,04,26,14,23,13.60
2008,04,26,14,24,13.50
2008,04,26,14,25,13.50
2008,04,26,14,26,13.40
2008,04,26,14,27,13.30
2008,04,26,14,28,13.30
2008,04,26,14,29,13.30
2008,04,26,14,30,13.40
2008,04,26,14,31,13.50
2008,04,26,14,32,13.60
2008,04,26,14,33,13.70
2008,04,26,14,34,13.70
2008,04,26,14,35,13.70
2008,04,26,14,36,13.90
2008,04,26,14,37,14.00
2008,04,26,14,38,14.00
2008,04,26,14,39,13.90
2008,04,26,14,40,13.90
2008,04,26,14,41,14.00
2008,04,26,14,42,14.00
2008,04,26,14,43,14.10
2008,04,26,14,44,14.10
2008,04,26,14,45,14.20
2008,04,26,14,46,14.10
2008,04,26,14,47,14.10
2008,04,26,14,48,14.00
2008,04,26,14,49,14.00
2008,04,26,14,50,14.00
2008,04,26,14,51,14.00
2008,04,26,14,52,14.00
2008,04,26,14,53,14.10
2008,04,26,14,54,14.20
2008,04,26,14,55,14.20
2008,04,26,14,56,14.00
2008,04,26,14,57,13.90
2008,04,26,14,58,13.70
2008,04,26,14,59,13.70
2008,04,26,15,00,13.70
2008,04,26,15,01,13.80
2008,04,26,15,02,13.80
2008,04,26,15,03,13.80
2008,04,26,15,04,13.80
2008,04,26,15,05,13.80
2008,04,26,15,06,14.00
2008,04,26,15,07,14.00
2008,04,26,15,08,14.10
2008,04,26,15,09,14.10
2008,04,26,15,10,14.10
2008,04,26,15,11,14.10
2008,04,26,15,12,14.10
2008,04,26,15,13,14.10
2008,04,26,15,14,14.10
2008,04,26,15,15,14.20
2008,04,26,15,16,14.20
2008,04,26,15,17,14.20
2008,04,26,15,18,14.30
2008,04,26,15,19,14.30
2008,04,26,15,20,14.40
2008,04,26,15,21,14.40
2008,04,26,15,22,14.30
2008,04,26,15,23,14.30
2008,04,26,15,24,14.40
2008,04,26,15,25,14.50
2008,04,26,15,26,14.60
2008,04,26,15,27,14.60
2008,04,26,15,28,14.60
2008,04,26,15,29,14.60
2008,04,26,15,30,14.60
2008,04,26,15,31,14.50
2008,04,26,15,32,14.40
2008,04,26,15,33,14.50
2008,04,26,15,34,14.50
2008,04,26,15,35,14.60
2008,04,26,15,36,14.70
2008,04,26,15,37,14.70
2008,04,26,15,38,14.70
2008,04,26,15,39,14.70
2008,04,26,15,40,14.70
2008,04,26,15,41,14.70
2008,04,26,15,42,14.80
2008,04,26,15,43,14.80
2008,04,26,15,44,14.70
2008,04,26,15,45,14.70
2008,04,26,15,46,14.40
2008,04,26,15,47,14.20
2008,04,26,15,48,14.20
2008,04,26,15,49,14.10
2008,04,26,15,50,14.20
2008,04,26,15,51,14.20
2008,04,26,15,52,14.30
2008,04,26,15,53,14.30
2008,04,26,15,54,14.40
2008,04,26,15,55,14.60
2008,04,26,15,56,14.70
2008,04,26,15,57,14.70
2008,04,26,15,58,14.70
2008,04,26,15,59,14.70
2008,04,26,16,00,14.80
2008,04,26,16,01,14.80
2008,04,26,16,02,14.90
2008,04,26,16,03,15.00
2008,04,26,16,04,15.00
2008,04,26,16,05,15.00
2008,04,26,16,06,15.00
2008,04,26,16,07,15.00
2008,04,26,16,08,14.90
2008,04,26,16,09,14.80
2008,04,26,16,10,14.70
2008,04,26,16,11,14.70
2008,04,26,16,12,14.70
2008,04,26,16,13,14.80
2008,04,26,16,14,14.90
2008,04,26,16,15,15.00
2008,04,26,16,16,15.00
2008,04,26,16,17,15.00
2008,04,26,16,18,15.00
2008,04,26,16,19,15.00
2008,04,26,16,20,15.10
2008,04,26,16,21,15.30
2008,04,26,16,22,15.40
2008,04,26,16,23,15.50
2008,04,26,16,24,15.50
2008,04,26,16,25,15.40
2008,04,26,16,26,15.40
2008,04,26,16,27,15.40
2008,04,26,16,28,15.40
2008,04,26,16,29,15.50
2008,04,26,16,30,15.50
2008,04,26,16,31,15.60
2008,04,26,16,32,15.60
2008,04,26,16,33,15.50
2008,04,26,16,34,15.40
2008,04,26,16,35,15.30
2008,04,26,16,36,15.30
2008,04,26,16,37,15.30
2008,04,26,16,38,15.20
2008,04,26,16,39,15.10
2008,04,26,16,40,15.10
2008,04,26,16,41,15.00
2008,04,26,16,42,15.00
2008,04,26,16,43,15.00
2008,04,26,16,44,15.00
2008,04,26,16,45,15.00
2008,04,26,16,46,15.00
2008,04,26,16,47,15.00
2008,04,26,16,48,15.10
2008,04,26,16,49,15.00
2008,04,26,16,50,15.00
2008,04,26,16,51,15.00
2008,04,26,16,52,15.00
2008,04,26,16,53,15.00
2008,04,26,16,54,15.00
2008,04,26,16,55,15.00
2008,04,26,16,56,15.00
2008,04,26,16,57,15.00
2008,04,26,16,58,15.00
2008,04,26,16,59,15.00
2008,04,26,17,00,15.00
2008,04,26,17,01,15.00
2008,04,26,17,02,15.00
2008,04,26,17,03,15.00
2008,04,26,17,04,15.00
2008,04,26,17,05,15.00
2008,04,26,17,06,15.00
2008,04,26,17,07,14.90
2008,04,26,17,08,14.80
2008,04,26,17,09,14.80
2008,04,26,17,10,14.80
2008,04,26,17,11,14.80
2008,04,26,17,12,14.80
2008,04,26,17,13,14.80
2008,04,26,17,14,14.90
2008,04,26,17,15,14.90
2008,04,26,17,16,15.00
2008,04,26,17,17,15.00
2008,04,26,17,18,15.00
2008,04,26,17,19,15.00
2008,04,26,17,20,15.00
2008,04,26,17,21,15.00
2008,04,26,17,22,15.00
2008,04,26,17,23,15.00
2008,04,26,17,24,15.00
2008,04,26,17,25,15.00
2008,04,26,17,26,14.80
2008,04,26,17,27,14.70
2008,04,26,17,28,14.70
2008,04,26,17,29,14.70
2008,04,26,17,30,14.70
2008,04,26,17,31,14.70
2008,04,26,17,32,14.80
2008,04,26,17,33,14.80
2008,04,26,17,34,14.80
2008,04,26,17,35,14.80
2008,04,26,17,36,14.80
2008,04,26,17,37,14.80
2008,04,26,17,38,14.80
2008,04,26,17,39,14.90
2008,04,26,17,40,14.80
2008,04,26,17,41,14.80
2008,04,26,17,42,14.70
2008,04,26,17,43,14.70
2008,04,26,17,44,14.60
2008,04,26,17,45,14.60
2008,04,26,17,46,14.70
2008,04,26,17,47,14.70